Location: Rounton
(54.4000°N, 1.3500°W)
Time: 23:21:36
(UTC+00:00)

Explorer 7 - Pass Details

Date: 30 November 2021
Orbit: 483 x 674 km, 50.3° (Epoch: 17 January)

Event Time Altitude Azimuth Distance (km) Brightness Sun altitude
Rises 13:16:53 0° 272° (W) 2,583 10.5 11.8°
Reaches altitude 10° 13:20:29 10° 237° (WSW) 1,673 10.3 11.6°
Maximum altitude 13:21:38 11° 219° (SW) 1,594 11.0 11.6°
Drops below altitude 10° 13:22:47 10° 201° (SSW) 1,662 13.8 11.5°
Sets 13:26:21 0° 165° (SSE) 2,536 11.2 11.3°
